Regional Weather Roundup
Issued by NWS Nashville, TN

Home | Current Version | Previous Version | Text Only | Print | Product List | Glossary On
Versions: 1 2 3 4 5 6 7 8 9 10 11 12 13 14 15 16 17 18 19 20 21 22 23 24 25 26 27 28 29 30 31 32 33 34 35 36 37 38 39 40 41 42 43 44 45 46 47 48 49 50
000
ASUS44 KOHX 301310
RWROHX
MIDDLE TENNESSEE HOURLY WEATHER ROUNDUP
NATIONAL WEATHER SERVICE NASHVILLE TN
800 AM CDT THU JUL 30 2015

NOTE: "FAIR" INDICATES FEW OR NO CLOUDS BELOW 12,000 FEET WITH
NO SIGNIFICANT WEATHER AND/OR OBSTRUCTIONS TO VISIBILITY.

* THESE REPORTS ARE NOT UNDER NWS QUALITY CONTROL AND MAY NOT
  REPORT WEATHER SUCH AS PRECIPITATION AND FOG.


TNZ005>011-023>034-057-059-062>066-078-080-301400
...NORTHERN MIDDLE TENNESSEE...

CITY           SKY/WX    TMP DP  RH WIND       PRES   REMARKS
CLARKSVILLE    SUNNY     74  64  71 N6        30.11R
CROSSVILLE     CLOUDY    74  70  87 N6        30.12R FOG
DICKSON        SUNNY     72  63  73 NE7       30.09R
LIVINGSTON     MOSUNNY   73  68  84 NE8       30.11R
NASHVILLE      PTSUNNY   78  66  66 NE12      30.09R
ROCKWOOD       CLOUDY    72  70  93 N7        30.10R
SMYRNA         PTSUNNY   79  68  69 N13       30.09R
$$
TNZ056-058-060-061-075>077-079-093>097-301400
...SOUTHERN MIDDLE TENNESSEE...

CITY           SKY/WX    TMP DP  RH WIND       PRES   REMARKS
COLUMBIA       PTSUNNY   79  73  83 N6        30.07R
LEWISBURG      CLOUDY    77  71  81 NE7       30.08R
MCMINNVILLE    CLOUDY    75  75 100 NE8       30.09R
SHELBYVILLE    CLOUDY    77  73  88 N8        30.09R
TULLAHOMA      CLOUDY    75  70  83 N9        30.10R
WINCHESTER     CLOUDY    75  72  88 CALM      30.08R
$$


...KEY TO REMARKS...
VSB - VISIBILITY IN MILES
WCI - WIND CHILL INDEX
HX  - HEAT INDEX



USA.gov is the U.S. government's official web portal to all federal, state and local government web resources and services.